Time,TemperatureF,DewpointF,PressureIn,WindDirection,WindDirectionDegrees,WindSpeedMPH,WindSpeedGustMPH,Humidity,HourlyPrecipIn,Conditions,Clouds,dailyrainin,SolarRadiationWatts/m^2,SoftwareType,DateUTC
2013-06-08 00:13:00,47.0,46.0,-100.00,WNW,288,1.0,2.0,98,0.00,,,0.00,1.000000,,2013-06-08 04:13:00,
2013-06-08 00:23:00,47.0,46.0,-100.00,WNW,288,1.0,2.0,98,0.00,,,0.00,1.000000,,2013-06-08 04:23:00,
2013-06-08 00:33:00,47.0,46.0,-100.00,WNW,288,1.0,2.0,98,0.00,,,0.00,1.000000,,2013-06-08 04:33:00,
2013-06-08 00:42:00,47.0,46.0,-100.00,WNW,288,1.0,2.0,98,0.00,,,0.00,1.000000,,2013-06-08 04:42:00,
2013-06-08 01:12:00,45.0,44.0,-100.00,WSW,252,0.0,2.0,98,0.00,,,0.00,1.000000,,2013-06-08 05:12:00,
2013-06-08 01:22:00,45.0,44.0,-100.00,WSW,252,0.0,2.0,98,0.00,,,0.00,1.000000,,2013-06-08 05:22:00,
2013-06-08 01:32:00,45.0,44.0,-100.00,WSW,252,0.0,2.0,98,0.00,,,0.00,1.000000,,2013-06-08 05:32:00,
2013-06-08 01:42:00,45.0,44.0,-100.00,WSW,252,0.0,2.0,98,0.00,,,0.00,1.000000,,2013-06-08 05:42:00,
2013-06-08 02:13:00,44.0,43.0,-100.00,West,260,2.0,2.0,98,0.00,,,0.00,1.000000,,2013-06-08 06:13:00,
2013-06-08 02:22:00,44.0,43.0,-100.00,West,260,2.0,2.0,98,0.00,,,0.00,1.000000,,2013-06-08 06:22:00,
2013-06-08 02:32:00,44.0,43.0,-100.00,West,260,2.0,2.0,98,0.00,,,0.00,1.000000,,2013-06-08 06:32:00,
2013-06-08 02:42:00,44.0,43.0,-100.00,West,260,2.0,2.0,98,0.00,,,0.00,1.000000,,2013-06-08 06:42:00,
2013-06-08 03:12:00,43.0,42.0,-100.00,WNW,297,0.0,2.0,98,0.00,,,0.00,1.000000,,2013-06-08 07:12:00,
2013-06-08 03:22:00,43.0,42.0,-100.00,WNW,297,0.0,2.0,98,0.00,,,0.00,1.000000,,2013-06-08 07:22:00,
2013-06-08 03:32:00,43.0,42.0,-100.00,WNW,297,0.0,2.0,98,0.00,,,0.00,1.000000,,2013-06-08 07:32:00,
2013-06-08 03:42:00,43.0,42.0,-100.00,WNW,297,0.0,2.0,98,0.00,,,0.00,1.000000,,2013-06-08 07:42:00,
2013-06-08 04:12:00,42.0,42.0,-100.00,West,274,0.0,2.0,99,0.00,,,0.00,1.000000,,2013-06-08 08:12:00,
2013-06-08 04:22:00,42.0,42.0,-100.00,West,274,0.0,2.0,99,0.00,,,0.00,1.000000,,2013-06-08 08:22:00,
2013-06-08 04:32:00,42.0,42.0,-100.00,West,274,0.0,2.0,99,0.00,,,0.00,1.000000,,2013-06-08 08:32:00,
2013-06-08 04:42:00,42.0,42.0,-100.00,West,274,0.0,2.0,99,0.00,,,0.00,1.000000,,2013-06-08 08:42:00,
2013-06-08 05:12:00,42.0,42.0,-100.00,WNW,296,0.0,2.0,99,0.00,,,0.00,1.000000,,2013-06-08 09:12:00,
2013-06-08 05:22:00,42.0,42.0,-100.00,WNW,296,0.0,2.0,99,0.00,,,0.00,1.000000,,2013-06-08 09:22:00,
2013-06-08 05:33:00,42.0,42.0,-100.00,WNW,296,0.0,2.0,99,0.00,,,0.00,1.000000,,2013-06-08 09:33:00,
2013-06-08 05:43:00,42.0,42.0,-100.00,WNW,296,0.0,2.0,99,0.00,,,0.00,1.000000,,2013-06-08 09:43:00,
2013-06-08 06:12:00,41.0,41.0,-100.00,West,280,1.0,2.0,99,0.00,,,0.00,1.000000,,2013-06-08 10:12:00,
2013-06-08 06:23:00,41.0,41.0,-100.00,West,280,1.0,2.0,99,0.00,,,0.00,1.000000,,2013-06-08 10:23:00,
2013-06-08 06:33:00,41.0,41.0,-100.00,West,280,1.0,2.0,99,0.00,,,0.00,1.000000,,2013-06-08 10:33:00,
2013-06-08 06:43:00,41.0,41.0,-100.00,West,280,1.0,2.0,99,0.00,,,0.00,1.000000,,2013-06-08 10:43:00,
2013-06-08 07:12:00,45.0,44.0,-100.00,West,280,0.0,2.0,98,0.00,,,0.00,29.000000,,2013-06-08 11:12:00,
2013-06-08 07:22:00,45.0,44.0,-100.00,West,280,0.0,2.0,98,0.00,,,0.00,29.000000,,2013-06-08 11:22:00,
2013-06-08 07:32:00,45.0,44.0,-100.00,West,280,0.0,2.0,98,0.00,,,0.00,29.000000,,2013-06-08 11:32:00,
2013-06-08 07:42:00,45.0,44.0,-100.00,West,280,0.0,2.0,98,0.00,,,0.00,29.000000,,2013-06-08 11:42:00,
2013-06-08 08:12:00,55.0,52.0,-100.00,WNW,291,0.0,2.0,90,0.00,,,0.00,145.000000,,2013-06-08 12:12:00,
2013-06-08 08:22:00,55.0,52.0,-100.00,WNW,291,0.0,2.0,90,0.00,,,0.00,145.000000,,2013-06-08 12:22:00,
2013-06-08 08:33:00,55.0,52.0,-100.00,WNW,291,0.0,2.0,90,0.00,,,0.00,145.000000,,2013-06-08 12:33:00,
2013-06-08 08:42:00,55.0,52.0,-100.00,WNW,291,0.0,2.0,90,0.00,,,0.00,145.000000,,2013-06-08 12:42:00,
2013-06-08 09:12:00,64.0,55.0,-100.00,NW,310,2.0,4.0,73,0.00,,,0.00,315.000000,,2013-06-08 13:12:00,
2013-06-08 09:22:00,64.0,55.0,-100.00,NW,310,2.0,4.0,73,0.00,,,0.00,315.000000,,2013-06-08 13:22:00,
2013-06-08 09:42:00,64.0,55.0,-100.00,NW,310,2.0,4.0,73,0.00,,,0.00,315.000000,,2013-06-08 13:42:00,
2013-06-08 10:12:00,68.0,54.0,-100.00,NNE,18,3.0,7.0,61,0.00,,,0.00,484.000000,,2013-06-08 14:12:00,
2013-06-08 10:22:00,68.0,54.0,-100.00,NNE,18,3.0,7.0,61,0.00,,,0.00,484.000000,,2013-06-08 14:22:00,
2013-06-08 10:32:00,68.0,54.0,-100.00,NNE,18,3.0,7.0,61,0.00,,,0.00,484.000000,,2013-06-08 14:32:00,
2013-06-08 10:42:00,68.0,54.0,-100.00,NNE,18,3.0,7.0,61,0.00,,,0.00,484.000000,,2013-06-08 14:42:00,
2013-06-08 11:12:00,71.0,54.0,-100.00,NNE,17,4.0,7.0,54,0.00,,,0.00,635.000000,,2013-06-08 15:12:00,
2013-06-08 11:22:00,71.0,54.0,-100.00,NNE,17,4.0,7.0,54,0.00,,,0.00,635.000000,,2013-06-08 15:22:00,
2013-06-08 11:33:00,71.0,54.0,-100.00,NNE,17,4.0,7.0,54,0.00,,,0.00,635.000000,,2013-06-08 15:33:00,
2013-06-08 11:43:00,71.0,54.0,-100.00,NNE,17,4.0,7.0,54,0.00,,,0.00,635.000000,,2013-06-08 15:43:00,
2013-06-08 12:12:00,70.0,51.0,-100.00,East,100,3.0,10.0,51,0.00,,,0.00,571.000000,,2013-06-08 16:12:00,
2013-06-08 12:23:00,70.0,51.0,-100.00,East,100,3.0,10.0,51,0.00,,,0.00,571.000000,,2013-06-08 16:23:00,
2013-06-08 12:33:00,70.0,51.0,-100.00,East,100,3.0,10.0,51,0.00,,,0.00,571.000000,,2013-06-08 16:33:00,
2013-06-08 12:42:00,70.0,51.0,-100.00,East,100,3.0,10.0,51,0.00,,,0.00,571.000000,,2013-06-08 16:42:00,
2013-06-08 13:12:00,71.0,51.0,-100.00,South,171,4.0,9.0,50,0.00,,,0.00,381.000000,,2013-06-08 17:12:00,
2013-06-08 13:23:00,71.0,51.0,-100.00,South,171,4.0,9.0,50,0.00,,,0.00,381.000000,,2013-06-08 17:23:00,
2013-06-08 13:32:00,71.0,51.0,-100.00,South,171,4.0,9.0,50,0.00,,,0.00,381.000000,,2013-06-08 17:32:00,
2013-06-08 13:42:00,71.0,51.0,-100.00,South,171,4.0,9.0,50,0.00,,,0.00,381.000000,,2013-06-08 17:42:00,
2013-06-08 14:12:00,66.0,53.0,-100.00,ESE,112,4.0,12.0,64,0.00,,,0.00,207.000000,,2013-06-08 18:12:00,
2013-06-08 14:22:00,66.0,53.0,-100.00,ESE,112,4.0,12.0,64,0.00,,,0.00,207.000000,,2013-06-08 18:22:00,
2013-06-08 14:32:00,66.0,53.0,-100.00,ESE,112,4.0,12.0,64,0.00,,,0.00,207.000000,,2013-06-08 18:32:00,
2013-06-08 14:42:00,66.0,53.0,-100.00,ESE,112,4.0,12.0,64,0.00,,,0.00,207.000000,,2013-06-08 18:42:00,
2013-06-08 15:13:00,66.0,54.0,-100.00,SE,125,5.0,9.0,66,0.00,,,0.00,201.000000,,2013-06-08 19:13:00,
2013-06-08 15:22:00,66.0,54.0,-100.00,SE,125,5.0,9.0,66,0.00,,,0.00,201.000000,,2013-06-08 19:22:00,
2013-06-08 15:32:00,66.0,54.0,-100.00,SE,125,5.0,9.0,66,0.00,,,0.00,201.000000,,2013-06-08 19:32:00,
2013-06-08 15:42:00,66.0,54.0,-100.00,SE,125,5.0,9.0,66,0.00,,,0.00,201.000000,,2013-06-08 19:42:00,
2013-06-08 16:12:00,68.0,54.0,-100.00,South,184,6.0,9.0,61,0.00,,,0.00,483.000000,,2013-06-08 20:12:00,
2013-06-08 16:22:00,68.0,54.0,-100.00,South,184,6.0,9.0,61,0.00,,,0.00,483.000000,,2013-06-08 20:22:00,
2013-06-08 16:32:00,68.0,54.0,-100.00,South,184,6.0,9.0,61,0.00,,,0.00,483.000000,,2013-06-08 20:32:00,
2013-06-08 16:42:00,68.0,54.0,-100.00,South,184,6.0,9.0,61,0.00,,,0.00,483.000000,,2013-06-08 20:42:00,
2013-06-08 17:13:00,63.0,56.0,-100.00,SSW,203,4.0,9.0,79,0.01,,,0.01,112.000000,,2013-06-08 21:13:00,
2013-06-08 17:22:00,63.0,56.0,-100.00,SSW,203,4.0,9.0,79,0.01,,,0.01,112.000000,,2013-06-08 21:22:00,
2013-06-08 17:33:00,63.0,56.0,-100.00,SSW,203,4.0,9.0,79,0.01,,,0.01,112.000000,,2013-06-08 21:33:00,
2013-06-08 17:43:00,63.0,56.0,-100.00,SSW,203,4.0,9.0,79,0.01,,,0.01,112.000000,,2013-06-08 21:43:00,
2013-06-08 18:13:00,61.0,57.0,-100.00,South,190,4.0,7.0,87,0.00,,,0.01,111.000000,,2013-06-08 22:13:00,
2013-06-08 18:23:00,61.0,57.0,-100.00,South,190,4.0,7.0,87,0.00,,,0.01,111.000000,,2013-06-08 22:23:00,
2013-06-08 18:33:00,61.0,57.0,-100.00,South,190,4.0,7.0,87,0.00,,,0.01,111.000000,,2013-06-08 22:33:00,
2013-06-08 18:42:00,61.0,57.0,-100.00,South,190,4.0,7.0,87,0.00,,,0.01,111.000000,,2013-06-08 22:42:00,
2013-06-08 19:12:00,62.0,57.0,-100.00,South,173,2.0,6.0,85,0.00,,,0.01,117.000000,,2013-06-08 23:12:00,
2013-06-08 19:22:00,62.0,57.0,-100.00,South,173,2.0,6.0,85,0.00,,,0.01,117.000000,,2013-06-08 23:22:00,
2013-06-08 19:32:00,62.0,57.0,-100.00,South,173,2.0,6.0,85,0.00,,,0.01,117.000000,,2013-06-08 23:32:00,
2013-06-08 19:42:00,62.0,57.0,-100.00,South,173,2.0,6.0,85,0.00,,,0.01,117.000000,,2013-06-08 23:42:00,
2013-06-08 20:12:00,65.0,56.0,-100.00,SSW,205,6.0,10.0,73,0.00,,,0.01,261.000000,,2013-06-09 00:12:00,
2013-06-08 20:22:00,65.0,56.0,-100.00,SSW,205,6.0,10.0,73,0.00,,,0.01,261.000000,,2013-06-09 00:22:00,
2013-06-08 20:32:00,65.0,56.0,-100.00,SSW,205,6.0,10.0,73,0.00,,,0.01,261.000000,,2013-06-09 00:32:00,
2013-06-08 20:42:00,65.0,56.0,-100.00,SSW,205,6.0,10.0,73,0.00,,,0.01,261.000000,,2013-06-09 00:42:00,
2013-06-08 21:12:00,61.0,55.0,-100.00,South,188,4.0,7.0,81,0.00,,,0.01,112.000000,,2013-06-09 01:12:00,
2013-06-08 21:22:00,61.0,55.0,-100.00,South,188,4.0,7.0,81,0.00,,,0.01,112.000000,,2013-06-09 01:22:00,
2013-06-08 21:32:00,61.0,55.0,-100.00,South,188,4.0,7.0,81,0.00,,,0.01,112.000000,,2013-06-09 01:32:00,
2013-06-08 21:42:00,61.0,55.0,-100.00,South,188,4.0,7.0,81,0.00,,,0.01,112.000000,,2013-06-09 01:42:00,
2013-06-08 22:12:00,54.0,51.0,-100.00,West,278,2.0,5.0,90,0.00,,,0.01,7.000000,,2013-06-09 02:12:00,
2013-06-08 22:22:00,54.0,51.0,-100.00,West,278,2.0,5.0,90,0.00,,,0.01,7.000000,,2013-06-09 02:22:00,
2013-06-08 22:32:00,54.0,51.0,-100.00,West,278,2.0,5.0,90,0.00,,,0.01,7.000000,,2013-06-09 02:32:00,
2013-06-08 22:42:00,54.0,51.0,-100.00,West,278,2.0,5.0,90,0.00,,,0.01,7.000000,,2013-06-09 02:42:00,
2013-06-08 23:12:00,50.0,49.0,-100.00,North,356,0.0,2.0,96,0.00,,,0.01,1.000000,,2013-06-09 03:12:00,
2013-06-08 23:22:00,50.0,49.0,-100.00,North,356,0.0,2.0,96,0.00,,,0.01,1.000000,,2013-06-09 03:22:00,
2013-06-08 23:33:00,50.0,49.0,-100.00,North,356,0.0,2.0,96,0.00,,,0.01,1.000000,,2013-06-09 03:33:00,
2013-06-08 23:43:00,50.0,49.0,-100.00,North,356,0.0,2.0,96,0.00,,,0.01,1.000000,,2013-06-09 03:43:00,